STARLINK-30042 (55702 NORAD) Tracking and Keplerian Element Data

This shows tracking and keplerian element data for the satellite.

Feedback or suggestion? Click here.




ElementValue
Catalog55702
NameSTARLINK-30042
Epoch Orbit514
Epoch Day85.25001157
Epoch Year2023
RAAN126.4202
Inclination42.9983
Eccentricity0.0001577
Argument of Perigee276.3924
Mean Anonmoly57.9997
Mean Motion15.68015391
Decay Rate-0.00152905
L11 55702U 23026H 23085.25001157 -.00152905 00000+0 -13610-2 0 9997
L22 55702 42.9983 126.4202 0001577 276.3924 57.9997 15.68015391 5141



Live tracking and technical data element details for STARLINK-30042 (NORAD 55702). STARLINK-30042 can be tracked NOW for your location showing map with azimuth and elevation plus other details from your city location.







IsCatalogInMostPopularTable: catalog: 55702, numindb: 3
Update: records affected: 1



GetName: 55702 STARLINK-30042

Hit Count: updated at: Tue, 28 Mar 2023 01:54:59 GMT